This demonstration page uses our WeatherBlox Daily Observations layout. Learn more.

Left ArrowRight Arrow

Hourly Observations for October 23, 2015

Temp ( °F °C ) Dew Point ( °F °C ) Humidity (%) Winds ( mph kmh ) Pressure ( in mb ) Visibility ( mi km ) Precip ( " mm )
12:53 am 00:53 Clear 55 12.8 53 11.7 93 93 Calm 30.22 1023 8 13 0.00 0.00
1:04 am 01:04 Partly Cloudy 55 13 54 12 94 94 Calm 30.24 1024 9 14 0.00 0.00
1:53 am 01:53 Clear 55 12.8 53 11.7 93 93 Calm 30.21 1023 10 16 0.00 0.00
2:53 am 02:53 Clear 54 12.2 51 10.6 90 90 Calm 30.19 1023 10 16 0.00 0.00
3:32 am 03:32 Clear with Mist and Fog 54 12 52 11 94 94 Calm 30.21 1023 2 3 0.00 0.00
3:39 am 03:39 Clear 53 11.7 51 10.6 93 93 Calm 30.21 1023 8 13 0.00 0.00
3:53 am 03:53 Clear 53 11.7 51 10.6 93 93 Calm 30.19 1022 8 13 0.00 0.00
4:53 am 04:53 Clear 53 11.7 50 10 89 89 Calm 30.19 1022 8 13 0.00 0.00
5:53 am 05:53 Clear 52 11.1 49 9.4 89 89 Calm 30.19 1023 10 16 0.00 0.00
6:53 am 06:53 Clear 51 10.6 49 9.4 92 92 Calm 30.21 1023 10 16 0.00 0.00
7:53 am 07:53 Sunny 51 10.6 49 9.4 92 92 Calm 30.22 1023 10 16 0.00 0.00
8:53 am 08:53 Sunny 54 12.2 51 10.6 90 90 NE 3 6 30.22 1024 10 16 0.00 0.00
9:53 am 09:53 Sunny 61 16.1 56 13.3 84 84 NNE 3 6 30.22 1024 10 16 0.00 0.00
10:53 am 10:53 Sunny 69 20.6 59 15 70 70 N 3 6 30.22 1023 10 16 0.00 0.00
11:53 am 11:53 Sunny 75 23.9 59 15 58 58 Calm 30.20 1023 10 16 0.00 0.00
12:53 pm 12:53 Sunny 77 25 60 15.6 56 56 VRB 3 6 30.18 1022 10 16 0.00 0.00
1:53 pm 13:53 Partly Cloudy 78 25.6 58 14.4 50 50 NE 3 6 30.15 1021 10 16 0.00 0.00
2:53 pm 14:53 Mostly Cloudy 79 26.1 58 14.4 49 49 VRB 5 7 30.13 1020 10 16 0.00 0.00
3:53 pm 15:53 Sunny 78 25.6 56 13.3 47 47 Calm 30.12 1020 10 16 0.00 0.00
4:53 pm 16:53 Sunny 77 25 56 13.3 48 48 WSW 3 6 30.11 1020 10 16 0.00 0.00
5:53 pm 17:53 Sunny 79 26.1 56 13.3 45 45 Calm 30.11 1020 10 16 0.00 0.00
6:53 pm 18:53 Sunny 71 21.7 60 15.6 68 68 Calm 30.13 1020 10 16 0.00 0.00
7:53 pm 19:53 Clear 64 17.8 60 15.6 87 87 Calm 30.14 1021 10 16 0.00 0.00
8:53 pm 20:53 Clear 63 17.2 60 15.6 90 90 Calm 30.15 1021 10 16 0.00 0.00
9:53 pm 21:53 Clear 62 16.7 58 14.4 86 86 Calm 30.16 1021 10 16 0.00 0.00
10:53 pm 22:53 Clear 59 15 56 13.3 90 90 Calm 30.15 1021 10 16 0.00 0.00
11:53 pm 23:53 Clear 58 14.4 55 12.8 90 90 Calm 30.16 1021 10 16 0.00 0.00

Powered by AerisWeather